Simultaneous Nadir Overpasses (SNOs) Predictions

Prediction of SNOs between GOES-14 and NOAA-20 Satellite Orbit:

Table of predicted SNOs for the next 14.0 days since TLE Epoch: 2/19/2022
Index Date Time (GOES-14) GOES-14 Lat,Lon NOAA-20 Lat,Lon Distance(km) Time Diff (sec)
1 02/19/2022 08:07:33 0.05,-104.62 -0.92,-100.45 476.00 80
2 02/20/2022 20:29:30 -0.05,-104.37 -0.33,-105.74 155.94 80
3 02/21/2022 20:08:07 -0.05,-104.36 0.69,-101.21 359.72 80
4 02/23/2022 08:29:56 0.05,-104.61 0.50,-106.48 214.38 80
5 02/24/2022 08:13:53 0.05,-104.61 -0.52,-101.96 302.23 80
6 02/25/2022 20:35:50 -0.06,-104.38 -0.72,-107.25 328.27 80
7 02/26/2022 20:14:26 -0.06,-104.37 0.30,-102.73 186.92 80
8 02/28/2022 08:36:17 0.06,-104.59 0.83,-108.01 389.71 80
9 03/01/2022 08:20:13 0.06,-104.60 -0.19,-103.48 127.03 80
10 03/03/2022 20:20:47 -0.06,-104.38 -0.02,-104.26 15.22 80
